Holland, MI

3:39 PM EST on February 20, 2017 (GMT -0500)
Tulip City

Weather History for KBIV - March, 2014

Change the Weather History Date:

Monday, March 31, 2014

  Actual Average Record
Temperature  
Mean Temperature 53 °F 42 °F  
Max Temperature 68 °F 51 °F 74 °F (1967)
Min Temperature 37 °F 33 °F 11 °F (1965)
Degree Days  
Heating Degree Days 12 23  
Month to date heating degree days 1126 875  
Since 1 July heating degree days 6284 5374  
Cooling Degree Days 0 0  
Month to date cooling degree days 0 0  
Year to date cooling degree days 0 0  
Moisture  
Dew Point 32 °F    
Average Humidity 49    
Maximum Humidity 70    
Minimum Humidity 28    
Precipitation  
Precipitation T in 0.07 in 1.09 in (1949)
Month to date precipitation 1.14 2.27  
Year to date precipitation 5.10 6.16  
Sea Level Pressure  
Sea Level Pressure 30.00 in    
Wind  
Wind Speed 13 mph (SE)    
Max Wind Speed 28 mph    
Max Gust Speed 34 mph    
Visibility 10 miles    
Events Rain    
T = Trace of Precipitation, MM = Missing Value Source: NWS Daily Summary

Daily Weather History Graph

Daily Weather History Graph

Search for Another Location

Airport or City:

Trip Planner

Search our weather history database for the weather conditions in past years. The results will help you decide how hot, cold, wet, or windy it might be!

Date:

Astronomy

Mar. 31, 2014 Rise Set
Actual Time 7:28 AM EDT 8:09 PM EDT
Civil Twilight 6:59 AM EDT 8:37 PM EDT
Nautical Twilight 6:26 AM EDT 9:11 PM EDT
Astronomical Twilight 5:51 AM EDT 9:46 PM EDT
Moon 7:50 AM EDT (3/31) 9:29 PM EDT (3/31)
Length of Visible Light 13h 38m
Length of Day
12h 41m
New Moon, 1% of the Moon is Illuminated
Mar 31
New Moon
Apr 7
First Quarter
Apr 15
Full
Apr 22
Last Quarter
Apr 29
New

Hourly Weather History & Observations

Time (EDT) Temp. Windchill Dew Point Humidity Pressure Visibility Wind Dir Wind Speed Gust Speed Precip Events Conditions
12:53 AM 42.1 °F 39.2 °F 28.0 °F 58% 30.11 in 10.0 mi South 4.6 mph - N/A   Clear
1:53 AM 39.0 °F 34.8 °F 28.0 °F 65% 30.12 in 10.0 mi SE 5.8 mph - N/A   Clear
2:53 AM 39.9 °F 35.8 °F 28.0 °F 63% 30.12 in 10.0 mi SE 5.8 mph - N/A   Clear
3:53 AM 41.0 °F 36.4 °F 28.9 °F 62% 30.12 in 10.0 mi SE 6.9 mph - N/A   Clear
4:53 AM 39.0 °F 34.8 °F 28.9 °F 67% 30.11 in 10.0 mi SE 5.8 mph - N/A   Clear
5:53 AM 39.0 °F 34.8 °F 28.9 °F 67% 30.12 in 10.0 mi SSE 5.8 mph - N/A   Clear
6:53 AM 37.9 °F 34.4 °F 28.9 °F 70% 30.12 in 10.0 mi SSE 4.6 mph - N/A   Clear
7:53 AM 37.9 °F 32.1 °F 28.9 °F 70% 30.13 in 10.0 mi SE 8.1 mph - N/A   Clear
8:53 AM 43.0 °F 38.8 °F 32.0 °F 65% 30.13 in 10.0 mi SSE 6.9 mph - N/A   Clear
9:53 AM 48.0 °F - 34.0 °F 58% 30.11 in 10.0 mi SSE 11.5 mph - N/A   Clear
10:53 AM 53.1 °F - 34.0 °F 48% 30.10 in 10.0 mi SE 10.4 mph - N/A   Clear
11:53 AM 57.0 °F - 34.0 °F 42% 30.08 in 10.0 mi SSE 11.5 mph - N/A   Clear
12:53 PM 60.1 °F - 32.0 °F 35% 30.00 in 10.0 mi SE 13.8 mph - N/A   Clear
1:53 PM 62.1 °F - 30.9 °F 31% 29.99 in 10.0 mi SE 17.3 mph - N/A   Clear
2:53 PM 62.1 °F - 30.9 °F 31% 29.95 in 10.0 mi SE 15.0 mph - N/A   Clear
3:53 PM 64.9 °F - 32.0 °F 29% 29.91 in 10.0 mi SE 13.8 mph - N/A   Clear
4:53 PM 64.0 °F - 30.9 °F 29% 29.93 in 10.0 mi SE 18.4 mph 28.8 mph N/A   Clear
5:53 PM 63.0 °F - 33.1 °F 33% 29.84 in 10.0 mi SE 18.4 mph 26.5 mph N/A   Clear
6:53 PM 61.0 °F - 35.1 °F 38% 29.88 in 10.0 mi SE 16.1 mph - N/A   Clear
7:53 PM 60.1 °F - 36.0 °F 41% 29.87 in 10.0 mi SE 16.1 mph - N/A   Mostly Cloudy
8:53 PM 59.0 °F - 36.0 °F 42% 29.78 in 10.0 mi SE 18.4 mph 25.3 mph N/A   Clear
9:53 PM 59.0 °F - 35.1 °F 41% 29.81 in 10.0 mi SE 19.6 mph 33.4 mph N/A   Partly Cloudy
10:53 PM 57.9 °F - 34.0 °F 41% 29.82 in 10.0 mi SSE 17.3 mph - N/A   Overcast
11:53 PM 57.9 °F - 36.0 °F 44% 29.84 in 10.0 mi SSE 18.4 mph 26.5 mph 0.00 in Rain Light Rain